Location: Newark
(29.9790°N, 31.1340°E)
Time: 20:17:22
(UTC+00:00)

A-11 Canister half - Pass Details

Date: 30 January 2020
Orbit: 1524 x 1684 km, 47.3° (Epoch: 22 February)

Event Time Altitude Azimuth Distance (km) Brightness Sun altitude
Rises 18:41:58 0° 308° (NW) 4,715 12.2 -41.5°
Reaches altitude 10° 18:45:22 10° 317° (NW) 3,750 11.4 -42.3°
Enters shadow 18:50:42 30° 345° (NNW) 2,549 10.1 -43.4°
